Location: *
(41.0833°N, 73.4167°W)
Time: 17:12:30
(UTC+00:00)

Cosmos 1833 Rocket - Pass Details

Date: 22 October 2019
Orbit: 833 x 839 km, 71.0° (Epoch: 11 November)

Event Time Altitude Azimuth Distance (km) Brightness Sun altitude
Rises 00:16:21 0° 326° (NW) 3,390 6.4 -25.5°
Reaches altitude 10° 00:19:03 10° 315° (NW) 2,452 5.8 -26.0°
Maximum altitude 00:23:51 30° 257° (WSW) 1,470 4.5 -26.9°
Drops below altitude 10° 00:28:37 10° 198° (SSW) 2,441 5.2 -27.8°
Sets 00:31:19 0° 188° (S) 3,371 5.8 -28.3°
